Hoffman, NC

10:34 AM EDT on September 30, 2016 (GMT -0400)
Mackall Army Air Field

Weather History for KHFF - November, 2012

Change the Weather History Date:

Tuesday, November 6, 2012

  Actual Average Record
Temperature  
Mean Temperature 40 °F -  
Max Temperature 47 °F 67 °F 82 °F (2003)
Min Temperature 33 °F 44 °F 30 °F (2001)
Degree Days  
Heating Degree Days 25    
Moisture  
Dew Point 33 °F    
Average Humidity 72    
Maximum Humidity 93    
Minimum Humidity 60    
Precipitation  
Precipitation 0.00 in - - ()
Sea Level Pressure  
Sea Level Pressure 30.04 in    
Wind  
Wind Speed 8 mph (NNE)    
Max Wind Speed 16 mph    
Max Gust Speed 21 mph    
Visibility 10 miles    
Events      
Averages and records for this station are not official NWS values.
T = Trace of Precipitation, MM = Missing Value Source: NWS Daily Summary

Daily Weather History Graph

Daily Weather History Graph

Search for Another Location

Airport or City:

Trip Planner

Search our weather history database for the weather conditions in past years. The results will help you decide how hot, cold, wet, or windy it might be!

Date:

Astronomy

Nov. 06, 2012 Rise Set
Actual Time 6:44 AM EST 5:18 PM EST
Civil Twilight 6:17 AM EST 5:45 PM EST
Nautical Twilight 5:47 AM EST 6:15 PM EST
Astronomical Twilight 5:17 AM EST 6:44 PM EST
Moon 11:53 PM EST (11/6) 12:37 PM EST (11/6)
Length of Visible Light 11h 27m
Length of Day
10h 34m
Waning Gibbous, 53% of the Moon is Illuminated
Nov 6
Waning Gibbous
Nov 6
Last Quarter
Nov 13
New
Nov 20
First Quarter
Nov 28
Full

Hourly Weather History & Observations

Time (EST) Temp. Windchill Dew Point Humidity Pressure Visibility Wind Dir Wind Speed Gust Speed Precip Events Conditions
12:55 AM 33.3 °F 28.9 °F 31.5 °F 93% 30.12 in 10.0 mi NNE 4.6 mph - N/A   Clear
1:55 AM 35.6 °F 31.7 °F 32.7 °F 89% 30.11 in 10.0 mi NE 4.6 mph - N/A   Partly Cloudy
2:55 AM 36.0 °F - 33.1 °F 89% 30.11 in 10.0 mi North - - N/A   Partly Cloudy
3:55 AM 37.4 °F 34.9 °F 34.5 °F 89% 30.11 in 10.0 mi NNE 3.5 mph - N/A   Mostly Cloudy
4:55 AM 37.6 °F - 34.9 °F 90% 30.09 in 10.0 mi North - - N/A   Overcast
5:55 AM 38.7 °F 35.2 °F 35.6 °F 89% 30.11 in 10.0 mi NNE 4.6 mph - N/A   Overcast
6:55 AM 39.4 °F 35.2 °F 35.2 °F 85% 30.13 in 10.0 mi NE 5.8 mph - N/A   Mostly Cloudy
7:55 AM 39.7 °F 35.6 °F 34.5 °F 82% 30.14 in 10.0 mi North 5.8 mph - N/A   Overcast
8:55 AM 40.3 °F 33.9 °F 33.4 °F 77% 30.12 in 10.0 mi NNE 10.4 mph - N/A   Mostly Cloudy
9:55 AM 41.0 °F 35.8 °F 33.3 °F 74% 30.13 in 10.0 mi NNE 8.1 mph - N/A   Overcast
10:55 AM 41.9 °F 36.3 °F 33.1 °F 71% 30.10 in 10.0 mi NNE 9.2 mph - N/A   Mostly Cloudy
11:48 AM 42.8 °F 38.0 °F 33.8 °F 70% 30.10 in 10.0 mi NNW 8.1 mph - N/A   Mostly Cloudy
11:53 AM 42.8 °F 36.2 °F 33.8 °F 70% 30.09 in 10.0 mi North 12.7 mph - N/A   Mostly Cloudy
11:55 AM 43.0 °F 36.4 °F 33.3 °F 69% 30.09 in 10.0 mi North 12.7 mph - N/A   Mostly Cloudy
12:55 PM 47.3 °F - 34.0 °F 60% 30.04 in 10.0 mi North 9.2 mph 18.4 mph N/A   Scattered Clouds
1:55 PM 47.5 °F - 34.3 °F 60% 30.01 in 10.0 mi NNE 16.1 mph 19.6 mph N/A   Mostly Cloudy
2:55 PM 47.5 °F - 34.3 °F 60% 29.99 in 10.0 mi NNE 13.8 mph 18.4 mph N/A   Mostly Cloudy
3:55 PM 46.6 °F - 34.7 °F 63% 30.00 in 10.0 mi NNE 11.5 mph - N/A   Mostly Cloudy
4:55 PM 45.3 °F 40.1 °F 34.2 °F 65% 30.00 in 10.0 mi North 10.4 mph - N/A   Mostly Cloudy
5:55 PM 43.9 °F 39.3 °F 33.3 °F 66% 30.00 in 10.0 mi North 8.1 mph - N/A   Overcast
6:37 PM 42.8 °F 39.3 °F 33.8 °F 70% 30.00 in 10.0 mi North 5.8 mph - N/A   Mostly Cloudy
6:52 PM 42.8 °F 38.0 °F 33.8 °F 70% 30.00 in 10.0 mi North 8.1 mph - N/A   Mostly Cloudy
6:55 PM 43.2 °F 38.4 °F 32.9 °F 67% 30.00 in 10.0 mi North 8.1 mph - N/A   Mostly Cloudy
7:47 PM 42.8 °F 37.0 °F 32.0 °F 66% 30.00 in 10.0 mi North 10.4 mph - N/A   Mostly Cloudy
7:55 PM 42.6 °F 36.8 °F 31.5 °F 65% 30.00 in 10.0 mi North 10.4 mph - N/A   Mostly Cloudy
8:01 PM 42.8 °F 36.6 °F 32.0 °F 66% 30.00 in 10.0 mi North 11.5 mph - N/A   Mostly Cloudy
8:37 PM 42.8 °F 37.0 °F 30.2 °F 61% 30.00 in 10.0 mi North 10.4 mph - N/A   Mostly Cloudy
8:55 PM 42.4 °F 37.0 °F 30.9 °F 64% 30.01 in 10.0 mi North 9.2 mph - N/A   Overcast
9:55 PM 41.9 °F 37.5 °F 31.1 °F 66% 29.99 in 10.0 mi North 6.9 mph 20.7 mph N/A   Mostly Cloudy
10:02 PM 42.8 °F 38.0 °F 32.0 °F 66% 29.99 in 10.0 mi North 8.1 mph - N/A   Mostly Cloudy
10:37 PM 41.0 °F 35.2 °F 30.2 °F 65% 29.97 in 10.0 mi North 9.2 mph - N/A   Mostly Cloudy
10:42 PM 41.0 °F 34.7 °F 30.2 °F 65% 29.96 in 10.0 mi North 10.4 mph - N/A   Mostly Cloudy
10:55 PM 41.4 °F 35.2 °F 30.7 °F 66% 29.96 in 10.0 mi NNE 10.4 mph - N/A   Mostly Cloudy
11:55 PM 41.2 °F 35.5 °F 30.9 °F 67% 29.95 in 10.0 mi North 9.2 mph - N/A   Mostly Cloudy